EW5593 Weather Reports


Display with metric or nautical units.
time (UTC)temp
F
wind
direction
speed
MPH
gust
MPH
rain 1hr
in
rain 24hr
in
rain mn
in
humidity
%
barometer
mb
20260505125004 56 0 0.0 0.0 0.00 0.00 0.00 75 1016.8
20260505124804 56 0 0.0 0.0 0.00 0.00 0.00 74 1016.8
20260505124704 56 0 0.0 0.0 0.00 0.00 0.00 76 1016.8
20260505124403 56 0 0.0 0.0 0.00 0.00 0.00 77 1016.7
20260505124304 55 0 0.0 0.0 0.00 0.00 0.00 77 1016.7
20260505124203 55 0 0.0 0.0 0.00 0.00 0.00 76 1016.7
20260505123904 55 0 0.0 0.0 0.00 0.00 0.00 76 1016.7
20260505123603 55 0 0.0 0.0 0.00 0.00 0.00 76 1016.7
20260505123404 54 0 0.0 0.0 0.00 0.00 0.00 77 1016.7
20260505123304 54 0 0.0 0.0 0.00 0.00 0.00 77 1016.7
20260505123104 54 0 0.0 0.0 0.00 0.00 0.00 77 1016.6
20260505123004 54 0 0.0 0.0 0.00 0.00 0.00 78 1016.6
20260505122904 54 0 0.0 0.0 0.00 0.00 0.00 78 1016.5
20260505122804 53 0 0.0 0.0 0.00 0.00 0.00 78 1016.6
20260505122703 53 0 0.0 0.0 0.00 0.00 0.00 77 1016.6
20260505122604 53 0 0.0 0.0 0.00 0.00 0.00 77 1016.6
20260505122504 53 0 0.0 0.0 0.00 0.00 0.00 77 1016.5
20260505122306 53 0 0.0 0.0 0.00 0.00 0.00 77 1016.6
20260505122204 53 0 0.0 0.0 0.00 0.00 0.00 77 1016.6
20260505122104 53 0 0.0 0.0 0.00 0.00 0.00 77 1016.6
20260505122004 53 0 0.0 0.0 0.00 0.00 0.00 78 1016.6
20260505121904 53 0 0.0 0.0 0.00 0.00 0.00 78 1016.6
20260505121804 53 0 0.0 0.0 0.00 0.00 0.00 78 1016.6
20260505121704 52 0 0.0 0.0 0.00 0.00 0.00 78 1016.6
20260505121503 52 0 0.0 0.0 0.00 0.00 0.00 78 1016.6
20260505121404 52 0 0.0 0.0 0.00 0.00 0.00 78 1016.6
20260505121304 52 0 0.0 0.0 0.00 0.00 0.00 78 1016.6
20260505121204 52 0 0.0 0.0 0.00 0.00 0.00 78 1016.6
20260505120904 52 0 0.0 0.0 0.00 0.00 0.00 78 1016.6
20260505120604 52 0 0.0 0.0 0.00 0.00 0.00 79 1016.6
20260505120204 52 0 0.0 0.0 0.00 0.00 0.00 78 1016.7
20260505115904 52 0 0.0 0.0 0.00 0.00 0.00 78 1016.4
20260505115404 51 0 0.0 0.0 0.00 0.00 0.00 79 1016.4
20260505115305 51 0 0.0 0.0 0.00 0.00 0.00 79 1016.4
20260505115004 51 0 0.0 0.0 0.00 0.00 0.00 79 1016.3
20260505114904 51 0 0.0 0.0 0.00 0.00 0.00 79 1016.2
20260505114804 51 0 0.0 0.0 0.00 0.00 0.00 79 1016.2
20260505114704 51 0 0.0 0.0 0.00 0.00 0.00 79 1016.1
20260505114304 51 0 0.0 0.0 0.00 0.00 0.00 79 1016.2
20260505114103 51 0 0.0 0.0 0.00 0.00 0.00 79 1016.1
20260505114004 51 0 0.0 0.0 0.00 0.00 0.00 79 1016.2
20260505113904 51 0 0.0 0.0 0.00 0.00 0.00 79 1016.1
20260505113504 51 0 0.0 0.0 0.00 0.00 0.00 80 1016.1
20260505113304 51 0 0.0 0.0 0.00 0.00 0.00 80 1016.1
20260505113204 50 0 0.0 0.0 0.00 0.00 0.00 80 1016.1
20260505113005 50 0 0.0 0.0 0.00 0.00 0.00 81 1016.2
20260505112804 51 0 0.0 0.0 0.00 0.00 0.00 80 1016.1
20260505112404 50 0 0.0 0.0 0.00 0.00 0.00 82 1016.1
20260505112104 50 0 0.0 0.0 0.00 0.00 0.00 82 1016.2
20260505111803 50 0 0.0 0.0 0.00 0.00 0.00 79 1016.0
20260505111704 50 0 0.0 0.0 0.00 0.00 0.00 79 1016.0
20260505111604 50 0 0.0 0.0 0.00 0.00 0.00 79 1016.0
20260505110904 50 0 0.0 0.0 0.00 0.00 0.00 79 1015.8
20260505110304 51 0 0.0 0.0 0.00 0.00 0.00 78 1015.6
20260505110203 51 0 0.0 0.0 0.00 0.00 0.00 78 1015.6
20260505110104 51 0 0.0 0.0 0.00 0.00 0.00 77 1015.7
20260505102104 51 0 0.0 0.0 0.00 0.00 0.00 78 1015.9
20260505102004 51 0 0.0 0.0 0.00 0.00 0.00 78 1015.9
20260505101905 51 0 0.0 0.0 0.00 0.00 0.00 78 1015.9
20260505101604 51 0 0.0 0.0 0.00 0.00 0.00 77 1015.9
20260505101004 51 0 0.0 0.0 0.00 0.00 0.00 75 1015.7
20260505100904 51 0 0.0 0.0 0.00 0.00 0.00 75 1015.7
20260505100804 51 0 0.0 0.0 0.00 0.00 0.00 76 1015.7
20260505100704 51 0 0.0 0.0 0.00 0.00 0.00 76 1015.7
20260505100604 51 0 0.0 0.0 0.00 0.00 0.00 76 1015.7
20260505100504 51 0 0.0 0.0 0.00 0.00 0.00 75 1015.7
20260505100304 52 0 0.0 0.0 0.00 0.00 0.00 75 1015.7
20260505100204 52 0 0.0 0.0 0.00 0.00 0.00 75 1015.8
20260505100004 51 0 0.0 0.0 0.00 0.00 0.00 76 1015.8
20260505095603 51 0 0.0 0.0 0.00 0.00 0.00 76 1015.8
20260505095305 52 0 0.0 0.0 0.00 0.00 0.00 75 1015.8
20260505095004 52 0 0.0 0.0 0.00 0.00 0.00 75 1015.9
20260505094903 52 0 0.0 0.0 0.00 0.00 0.00 75 1015.9
20260505094803 52 0 0.0 0.0 0.00 0.00 0.00 74 1015.9
20260505094705 52 0 0.0 0.0 0.00 0.00 0.00 74 1015.9
20260505094304 52 0 0.0 0.0 0.00 0.00 0.00 73 1015.8
20260505094204 52 0 0.0 0.0 0.00 0.00 0.00 73 1015.9
20260505094004 52 0 0.0 0.0 0.00 0.00 0.00 74 1015.9
20260505093604 52 0 0.0 0.0 0.00 0.00 0.00 74 1015.9
20260505093304 52 0 0.0 0.0 0.00 0.00 0.00 73 1015.9
20260505093205 53 0 0.0 0.0 0.00 0.00 0.00 72 1015.8
20260505093103 53 0 0.0 0.0 0.00 0.00 0.00 72 1015.8
20260505093004 53 0 0.0 0.0 0.00 0.00 0.00 72 1015.9
20260505092904 53 0 0.0 0.0 0.00 0.00 0.00 72 1015.8
20260505092804 53 0 0.0 0.0 0.00 0.00 0.00 72 1015.9
20260505092604 53 0 0.0 0.0 0.00 0.00 0.00 71 1015.9
20260505092504 53 0 0.0 0.0 0.00 0.00 0.00 72 1015.9
20260505092404 53 0 0.0 0.0 0.00 0.00 0.00 72 1015.9
20260505092305 53 0 0.0 0.0 0.00 0.00 0.00 72 1015.9
20260505092104 53 0 0.0 0.0 0.00 0.00 0.00 72 1016.0
20260505091803 53 0 0.0 0.0 0.00 0.00 0.00 72 1016.0
20260505091604 53 0 0.0 0.0 0.00 0.00 0.00 72 1016.0
20260505091304 53 0 0.0 0.0 0.00 0.00 0.00 73 1016.0
20260505090904 53 0 0.0 0.0 0.00 0.00 0.00 73 1016.1
20260505090704 53 0 0.0 0.0 0.00 0.00 0.00 73 1016.1
20260505090604 53 0 0.0 0.0 0.00 0.00 0.00 74 1016.2
20260505090404 52 0 0.0 0.0 0.00 0.00 0.00 74 1016.2
20260505090104 52 0 0.0 0.0 0.00 0.00 0.00 74 1016.0
20260505090004 52 0 0.0 0.0 0.00 0.00 0.00 75 1016.0
20260505085804 52 0 0.0 0.0 0.00 0.00 0.00 75 1015.9
20260505085704 52 0 0.0 0.0 0.00 0.00 0.00 75 1015.9
20260505085503 52 0 0.0 0.0 0.00 0.00 0.00 76 1015.9
20260505085404 52 0 0.0 0.0 0.00 0.00 0.00 75 1015.9
20260505085305 52 0 0.0 0.0 0.00 0.00 0.00 75 1016.0
20260505085203 52 0 0.0 0.0 0.00 0.00 0.00 75 1016.0
20260505084904 52 0 0.0 0.0 0.00 0.00 0.00 74 1015.9
20260505084804 52 0 0.0 0.0 0.00 0.00 0.00 74 1015.9
20260505084503 52 0 0.0 0.0 0.00 0.00 0.00 73 1016.0
20260505083904 53 0 0.0 0.0 0.00 0.00 0.00 73 1016.0
20260505083805 53 0 0.0 0.0 0.00 0.00 0.00 72 1016.0
20260505083504 53 0 0.0 0.0 0.00 0.00 0.00 72 1016.0
20260505083204 53 0 0.0 0.0 0.00 0.00 0.00 72 1016.1
20260505083105 54 0 0.0 0.0 0.00 0.00 0.00 72 1016.1
20260505082904 54 0 0.0 0.0 0.00 0.00 0.00 71 1015.9
20260505082704 54 0 0.0 0.0 0.00 0.00 0.00 71 1016.0
20260505082603 54 0 0.0 0.0 0.00 0.00 0.00 71 1016.1
20260505082504 54 0 0.0 0.0 0.00 0.00 0.00 71 1016.1
20260505081704 54 0 0.0 0.0 0.00 0.00 0.00 71 1016.0
20260505081603 54 0 0.0 0.0 0.00 0.00 0.00 71 1016.1
20260505081504 54 0 0.0 0.0 0.00 0.00 0.00 71 1016.1
20260505081204 54 0 0.0 0.0 0.00 0.00 0.00 72 1016.2
20260505081104 53 0 0.0 0.0 0.00 0.00 0.00 72 1016.2
20260505080904 53 0 0.0 0.0 0.00 0.00 0.00 72 1016.2
20260505080804 54 0 0.0 0.0 0.00 0.00 0.00 71 1016.1
20260505080704 54 0 0.0 0.0 0.00 0.00 0.00 71 1016.1
20260505080403 54 0 0.0 0.0 0.00 0.00 0.00 71 1016.1
20260505080304 54 0 0.0 0.0 0.00 0.00 0.00 71 1016.2
20260505080204 54 0 0.0 0.0 0.00 0.00 0.00 71 1016.2
20260505080004 54 0 0.0 0.0 0.00 0.00 0.00 71 1016.0
20260505075903 54 0 0.0 0.0 0.00 0.00 0.00 71 1016.0
20260505075804 54 0 0.0 0.0 0.00 0.00 0.00 71 1016.0
20260505075704 54 0 0.0 0.0 0.00 0.00 0.00 71 1016.0
20260505075604 54 0 0.0 0.0 0.00 0.00 0.00 71 1016.0
20260505075503 54 0 0.0 0.0 0.00 0.00 0.00 70 1016.0
20260505075304 54 0 0.0 0.0 0.00 0.00 0.00 69 1016.0
20260505075103 55 0 0.0 0.0 0.00 0.00 0.00 69 1016.0
20260505074904 55 0 0.0 0.0 0.00 0.00 0.00 69 1016.0
20260505074803 55 0 0.0 0.0 0.00 0.00 0.00 69 1016.1
20260505074404 55 0 0.0 0.0 0.00 0.00 0.00 69 1016.0
20260505074203 55 0 0.0 0.0 0.00 0.00 0.00 69 1016.0
20260505074004 55 0 0.0 0.0 0.00 0.00 0.00 68 1016.0
20260505073904 55 0 0.0 0.0 0.00 0.00 0.00 68 1016.0
20260505073703 55 0 0.0 0.0 0.00 0.00 0.00 68 1016.0
20260505073604 55 0 0.0 0.0 0.00 0.00 0.00 68 1016.1
20260505073304 55 0 0.0 0.0 0.00 0.00 0.00 67 1016.1
20260505073104 56 0 0.0 0.0 0.00 0.00 0.00 67 1016.0
20260505072804 56 0 0.0 0.0 0.00 0.00 0.00 67 1016.0
20260505072604 56 0 0.0 0.0 0.00 0.00 0.00 67 1016.0
20260505072504 56 0 0.0 0.0 0.00 0.00 0.00 67 1016.0
20260505072404 56 0 0.0 0.0 0.00 0.00 0.00 67 1016.1
20260505071904 56 0 0.0 0.0 0.00 0.00 0.00 67 1016.1
20260505071604 56 0 0.0 0.0 0.00 0.00 0.00 67 1016.1
20260505071404 56 0 0.0 0.0 0.00 0.00 0.00 67 1016.0
20260505071204 56 0 0.0 0.0 0.00 0.00 0.00 68 1016.0
20260505071007 55 0 0.0 0.0 0.00 0.00 0.00 68 1016.0
20260505070704 56 0 0.0 0.0 0.00 0.00 0.00 67 1016.0
20260505070404 55 0 0.0 0.0 0.00 0.00 0.00 69 1016.0
20260505070304 55 0 0.0 0.0 0.00 0.00 0.00 69 1016.0
20260505070203 55 0 0.0 0.0 0.00 0.00 0.00 69 1016.0
20260505070004 55 0 0.0 0.0 0.00 0.00 0.00 69 1016.0
20260505065304 55 0 0.0 0.0 0.00 0.00 0.00 69 1016.1
20260505064804 55 0 0.0 0.0 0.00 0.00 0.00 68 1016.0
20260505064704 55 0 0.0 0.0 0.00 0.00 0.00 68 1016.0
20260505064304 55 0 0.0 0.0 0.00 0.00 0.00 68 1016.0
20260505064204 56 0 0.0 0.0 0.00 0.00 0.00 68 1015.9
20260505063903 55 0 0.0 0.0 0.00 0.00 0.00 68 1015.9
20260505063804 55 0 0.0 0.0 0.00 0.00 0.00 69 1015.9
20260505063704 55 0 0.0 0.0 0.00 0.00 0.00 69 1015.9
20260505063403 55 0 0.0 0.0 0.00 0.00 0.00 69 1016.0
20260505062804 55 0 0.0 0.0 0.00 0.00 0.00 69 1016.0
20260505062504 55 0 0.0 0.0 0.00 0.00 0.00 70 1016.1
20260505062404 55 0 0.0 0.0 0.00 0.00 0.00 70 1016.1
20260505062304 55 0 0.0 0.0 0.00 0.00 0.00 70 1016.1
20260505062204 55 0 0.0 0.0 0.00 0.00 0.00 70 1016.2
20260505061704 55 0 0.0 0.0 0.00 0.00 0.00 70 1016.1
20260505061604 55 0 0.0 0.0 0.00 0.00 0.00 71 1016.1
20260505061504 54 0 0.0 0.0 0.00 0.00 0.00 71 1016.1
20260505061404 54 0 0.0 0.0 0.00 0.00 0.00 71 1016.1
20260505061304 54 0 0.0 0.0 0.00 0.00 0.00 72 1016.1
20260505061203 54 0 0.0 0.0 0.00 0.00 0.00 71 1016.2
20260505060904 54 0 0.0 0.0 0.00 0.00 0.00 71 1016.3
20260505060803 54 0 0.0 0.0 0.00 0.00 0.00 71 1016.2
20260505060704 55 0 0.0 0.0 0.00 0.00 0.00 71 1016.2
20260505060304 54 0 0.0 0.0 0.00 0.00 0.00 72 1016.3
20260505060104 54 0 0.0 0.0 0.00 0.00 0.00 72 1016.3
20260505055804 54 0 0.0 0.0 0.00 0.00 0.00 71 1016.1
20260505055704 55 0 0.0 0.0 0.00 0.00 0.00 71 1016.1
20260505055604 55 0 0.0 0.0 0.00 0.00 0.00 72 1016.1
20260505055204 54 0 0.0 0.0 0.00 0.00 0.00 72 1016.2
20260505055104 55 0 0.0 0.0 0.00 0.00 0.00 72 1016.2
20260505055004 55 0 0.0 0.0 0.00 0.00 0.00 71 1016.2
20260505054904 55 0 0.0 0.0 0.00 0.00 0.00 72 1016.2
20260505054704 55 0 0.0 0.0 0.00 0.00 0.00 71 1016.2
20260505054604 55 0 0.0 0.0 0.00 0.00 0.00 71 1016.3
20260505054504 55 0 0.0 0.0 0.00 0.00 0.00 71 1016.3
20260505054404 55 0 0.0 0.0 0.00 0.00 0.00 71 1016.2
20260505054304 55 0 0.0 0.0 0.00 0.00 0.00 71 1016.3
20260505053904 55 0 0.0 0.0 0.00 0.00 0.00 71 1016.3
20260505053804 55 0 0.0 0.0 0.00 0.00 0.00 71 1016.3
20260505053504 55 0 0.0 0.0 0.00 0.00 0.00 71 1016.3
20260505053303 55 0 0.0 0.0 0.00 0.00 0.00 71 1016.3
20260505052904 55 0 0.0 0.0 0.00 0.00 0.00 71 1016.3
20260505052404 55 0 0.0 0.0 0.00 0.00 0.00 71 1016.2
20260505052304 55 0 0.0 0.0 0.00 0.00 0.00 71 1016.3
20260505052004 55 0 0.0 0.0 0.00 0.00 0.00 71 1016.2
20260505051903 55 0 0.0 0.0 0.00 0.00 0.00 71 1016.2
20260505051704 55 0 0.0 0.0 0.00 0.00 0.00 71 1016.2
20260505051603 55 0 0.0 0.0 0.00 0.00 0.00 71 1016.2
20260505051204 55 0 0.0 0.0 0.00 0.00 0.00 71 1016.2
20260505051104 55 0 0.0 0.0 0.00 0.00 0.00 71 1016.2
20260505050905 55 0 0.0 0.0 0.00 0.00 0.00 71 1016.2
20260505050804 55 0 0.0 0.0 0.00 0.00 0.00 71 1016.2
20260505050604 55 0 0.0 0.0 0.00 0.00 0.00 71 1016.2
20260505050303 55 0 0.0 0.0 0.00 0.00 0.00 71 1016.2
20260505041704 57 0 0.0 0.0 0.00 0.00 0.00 68 1016.3
20260505041604 57 0 0.0 0.0 0.00 0.00 0.00 69 1016.2
20260505041404 56 0 0.0 0.0 0.00 0.00 0.00 69 1016.3
20260505041104 56 0 0.0 0.0 0.00 0.00 0.00 70 1016.3
20260505041003 56 0 0.0 0.0 0.00 0.00 0.00 70 1016.3
20260505040904 56 0 0.0 0.0 0.00 0.00 0.00 69 1016.3
20260505040104 57 0 0.0 0.0 0.00 0.00 0.00 69 1016.2
20260505040005 57 0 0.0 0.0 0.00 0.00 0.00 69 1016.2
20260505035704 57 0 0.0 0.0 0.00 0.00 0.00 68 1016.2
20260505035503 57 0 0.0 0.0 0.00 0.00 0.00 68 1016.2
20260505035203 57 0 0.0 0.0 0.00 0.00 0.00 69 1016.2
20260505035103 57 0 0.0 0.0 0.00 0.00 0.00 69 1016.2
20260505035004 57 0 0.0 0.0 0.00 0.00 0.00 69 1016.2
20260505034904 57 0 0.0 0.0 0.00 0.00 0.00 68 1016.3
20260505034803 57 0 0.0 0.0 0.00 0.00 0.00 69 1016.3
20260505034704 57 0 0.0 0.0 0.00 0.00 0.00 68 1016.3
20260505034504 57 0 0.0 0.0 0.00 0.00 0.00 68 1016.3
20260505034304 57 0 0.0 0.0 0.00 0.00 0.00 69 1016.3
20260505034204 57 0 0.0 0.0 0.00 0.00 0.00 69 1016.3
20260505034103 57 0 0.0 0.0 0.00 0.00 0.00 69 1016.3
20260505034003 57 0 0.0 0.0 0.00 0.00 0.00 69 1016.3
20260505033604 57 0 0.0 0.0 0.00 0.00 0.00 68 1016.3
20260505033104 57 0 0.0 0.0 0.00 0.00 0.00 68 1016.4
20260505032704 58 0 0.0 0.0 0.00 0.00 0.00 67 1016.3
20260505032404 58 0 0.0 0.0 0.00 0.00 0.00 66 1016.3
20260505032204 58 0 0.0 0.0 0.00 0.00 0.00 65 1016.3
20260505031903 58 0 0.0 0.0 0.00 0.00 0.00 66 1016.3
20260505031704 58 0 0.0 0.0 0.00 0.00 0.00 66 1016.3
20260505031504 58 0 0.0 0.0 0.00 0.00 0.00 66 1016.3
20260505031404 58 0 0.0 0.0 0.00 0.00 0.00 67 1016.3
20260505031104 58 0 0.0 0.0 0.00 0.00 0.00 67 1016.3
20260505031004 58 0 0.0 0.0 0.00 0.00 0.00 67 1016.3
20260505030804 58 0 0.0 0.0 0.00 0.00 0.00 67 1016.3
20260505030504 58 0 0.0 0.0 0.00 0.00 0.00 68 1016.4
20260505030404 58 0 0.0 0.0 0.00 0.00 0.00 68 1016.3
20260505030304 58 0 0.0 0.0 0.00 0.00 0.00 68 1016.4
20260505030105 58 0 0.0 0.0 0.00 0.00 0.00 68 1016.3
20260505030004 58 0 0.0 0.0 0.00 0.00 0.00 67 1016.4
20260505025904 58 0 0.0 0.0 0.00 0.00 0.00 67 1016.4
20260505025803 58 0 0.0 0.0 0.00 0.00 0.00 68 1016.4
20260505025704 58 0 0.0 0.0 0.00 0.00 0.00 68 1016.4
20260505025504 58 0 0.0 0.0 0.00 0.00 0.00 68 1016.3
20260505025403 58 0 0.0 0.0 0.00 0.00 0.00 68 1016.4
20260505025305 58 0 0.0 0.0 0.00 0.00 0.00 68 1016.4
20260505025004 58 0 0.0 0.0 0.00 0.00 0.00 68 1016.3
20260505024803 58 0 0.0 0.0 0.00 0.00 0.00 68 1016.4
20260505024404 58 0 0.0 0.0 0.00 0.00 0.00 66 1016.3
20260505024304 59 0 0.0 0.0 0.00 0.00 0.00 66 1016.3
20260505024203 59 0 0.0 0.0 0.00 0.00 0.00 66 1016.3
20260505024104 59 0 0.0 0.0 0.00 0.00 0.00 66 1016.3
20260505024004 59 0 0.0 0.0 0.00 0.00 0.00 66 1016.4
20260505023804 59 0 0.0 0.0 0.00 0.00 0.00 65 1016.3
20260505023704 59 0 0.0 0.0 0.00 0.00 0.00 64 1016.2
20260505023204 59 0 0.0 0.0 0.00 0.00 0.00 65 1016.3
20260505023103 59 0 0.0 0.0 0.00 0.00 0.00 65 1016.3
20260505022904 59 0 0.0 0.0 0.00 0.00 0.00 65 1016.3
20260505022504 60 0 0.0 0.0 0.00 0.00 0.00 64 1016.2
20260505022304 60 0 0.0 0.0 0.00 0.00 0.00 64 1016.2
20260505022104 60 0 0.0 0.0 0.00 0.00 0.00 64 1016.1
20260505021904 60 0 0.0 0.0 0.00 0.00 0.00 64 1016.2
20260505021804 60 0 0.0 0.0 0.00 0.00 0.00 64 1016.2
20260505021703 60 0 0.0 0.0 0.00 0.00 0.00 64 1016.1
20260505021504 60 0 0.0 0.0 0.00 0.00 0.00 64 1016.2
20260505020804 60 0 0.0 0.0 0.00 0.00 0.00 65 1016.2
20260505020703 60 0 0.0 0.0 0.00 0.00 0.00 65 1016.2
20260505020604 60 0 0.0 0.0 0.00 0.00 0.00 65 1016.1
20260505020304 60 0 0.0 0.0 0.00 0.00 0.00 65 1016.1
20260505020204 60 0 0.0 0.0 0.00 0.00 0.00 65 1016.1
20260505020104 60 0 0.0 0.0 0.00 0.00 0.00 65 1016.1
20260505015304 60 0 0.0 0.0 0.00 0.00 0.00 64 1015.9
20260505015204 60 0 0.0 0.0 0.00 0.00 0.00 64 1016.0
20260505015103 60 0 0.0 0.0 0.00 0.00 0.00 64 1016.0
20260505014904 60 0 0.0 0.0 0.00 0.00 0.00 64 1016.0
20260505014804 60 0 0.0 0.0 0.00 0.00 0.00 63 1015.8
20260505014704 60 0 0.0 0.0 0.00 0.00 0.00 64 1015.9
20260505014604 60 0 0.0 0.0 0.00 0.00 0.00 64 1015.9
20260505014503 60 0 0.0 0.0 0.00 0.00 0.00 63 1015.9
20260505014404 60 0 0.0 0.0 0.00 0.00 0.00 64 1015.9
20260505014304 60 0 0.0 0.0 0.00 0.00 0.00 63 1015.8
20260505014203 60 0 0.0 0.0 0.00 0.00 0.00 63 1015.9
20260505014104 60 0 0.0 0.0 0.00 0.00 0.00 63 1015.8
20260505013803 61 0 0.0 0.0 0.00 0.00 0.00 63 1015.9
20260505013704 61 0 0.0 0.0 0.00 0.00 0.00 63 1015.8
20260505013504 61 0 0.0 0.0 0.00 0.00 0.00 63 1015.9
20260505013103 61 0 0.0 0.0 0.00 0.00 0.00 62 1015.9
20260505012804 61 0 0.0 0.0 0.00 0.00 0.00 62 1015.9
20260505012404 62 0 0.0 0.0 0.00 0.00 0.00 62 1015.8
20260505012304 62 0 0.0 0.0 0.00 0.00 0.00 61 1015.8
20260505012104 62 0 0.0 0.0 0.00 0.00 0.00 61 1015.8
20260505011904 62 0 0.0 0.0 0.00 0.00 0.00 61 1015.8
20260505011503 62 0 0.0 0.0 0.00 0.00 0.00 62 1015.8
20260505011104 62 0 0.0 0.0 0.00 0.00 0.00 63 1015.8
20260505010604 62 0 0.0 0.0 0.00 0.00 0.00 62 1015.8
20260505010504 62 0 0.0 0.0 0.00 0.00 0.00 62 1015.8
20260505010304 62 0 0.0 0.0 0.00 0.00 0.00 62 1015.7
20260505010104 62 0 0.0 0.0 0.00 0.00 0.00 62 1015.7
20260505010004 62 0 0.0 0.0 0.00 0.00 0.00 63 1015.5
20260505005804 62 0 0.0 0.0 0.00 0.00 0.00 63 1015.6
20260505005703 62 0 0.0 0.0 0.00 0.00 0.00 62 1015.5
20260505005604 62 0 0.0 0.0 0.00 0.00 0.00 62 1015.5
20260505005504 62 0 0.0 0.0 0.00 0.00 0.00 62 1015.5
20260505005203 62 0 0.0 0.0 0.00 0.00 0.00 63 1015.4
20260505005004 62 0 0.0 0.0 0.00 0.00 0.00 63 1015.4
20260505004704 62 0 0.0 0.0 0.00 0.00 0.00 63 1015.5
20260505004503 63 0 0.0 0.0 0.00 0.00 0.00 62 1015.5
20260505004403 63 0 0.0 0.0 0.00 0.00 0.00 62 1015.5
20260505004204 63 0 0.0 0.0 0.00 0.00 0.00 62 1015.5
20260505003903 63 0 0.0 0.0 0.00 0.00 0.00 63 1015.4
20260505003704 63 0 0.0 0.0 0.00 0.00 0.00 63 1015.4
20260505003603 63 0 0.0 0.0 0.00 0.00 0.00 63 1015.4
20260505003404 63 0 0.0 0.0 0.00 0.00 0.00 64 1015.3
20260505003004 64 0 0.0 0.0 0.00 0.00 0.00 64 1015.3
20260505002804 64 0 0.0 0.0 0.00 0.00 0.00 63 1015.3
20260505002603 64 0 0.0 0.0 0.00 0.00 0.00 63 1015.3
20260505002404 64 0 0.0 0.0 0.00 0.00 0.00 64 1015.3
20260505002204 64 0 0.0 0.0 0.00 0.00 0.00 64 1015.4
20260505002104 64 0 0.0 0.0 0.00 0.00 0.00 64 1015.4
20260505002004 64 0 0.0 0.0 0.00 0.00 0.00 62 1015.3
20260505001903 64 0 0.0 0.0 0.00 0.00 0.00 61 1015.2
20260505001804 65 0 0.0 0.0 0.00 0.00 0.00 61 1015.3
20260505001504 65 0 0.0 0.0 0.00 0.00 0.00 61 1015.2
20260505000904 66 0 0.0 0.0 0.00 0.00 0.00 64 1015.3
20260505000804 66 0 0.0 0.0 0.00 0.00 0.00 62 1015.3
20260505000704 66 0 0.0 0.0 0.00 0.00 0.00 63 1015.3
20260505000503 66 351 0.0 1.0 0.00 0.00 0.00 61 1015.2
20260505000204 66 350 0.0 1.0 0.00 0.00 0.00 58 1015.1
20260505000004 66 350 0.0 1.0 0.00 0.00 0.00 59 1015.1
20260504235604 67 350 0.0 1.0 0.00 0.00 0.00 59 1015.2
20260504235504 67 350 0.0 1.0 0.00 0.00 0.00 59 1015.1
20260504235404 67 351 0.0 1.0 0.00 0.00 0.00 56 1015.0
20260504235304 67 351 0.0 1.0 0.00 0.00 0.00 56 1015.0
20260504235104 68 352 0.0 1.0 0.00 0.00 0.00 60 1015.1
20260504235004 68 353 0.0 1.0 0.00 0.00 0.00 60 1015.0
20260504234605 68 354 0.0 2.0 0.00 0.00 0.00 55 1014.9
20260504234404 68 354 0.0 2.0 0.00 0.00 0.00 58 1015.0
20260504234204 68 354 0.0 2.0 0.00 0.00 0.00 55 1014.9
20260504234103 68 355 0.0 2.0 0.00 0.00 0.00 56 1015.0
20260504233804 68 355 0.0 2.0 0.00 0.00 0.00 59 1015.0
20260504233603 68 0 0.0 0.0 0.00 0.00 0.00 56 1015.0
20260504233404 68 0 0.0 0.0 0.00 0.00 0.00 61 1015.0
20260504233003 68 355 0.0 2.0 0.00 0.00 0.00 61 1015.0
20260504232704 67 354 0.0 3.0 0.00 0.00 0.00 57 1014.9
20260504232503 67 354 0.0 3.0 0.00 0.00 0.00 64 1015.0
20260504232203 67 354 0.0 3.0 0.00 0.00 0.00 60 1014.9
20260504232104 67 354 0.0 3.0 0.00 0.00 0.00 60 1015.0
20260504231804 67 9 0.0 3.0 0.00 0.00 0.00 61 1015.0
20260504231604 67 46 0.0 4.0 0.00 0.00 0.00 61 1015.0
20260504231404 68 46 0.0 4.0 0.00 0.00 0.00 60 1015.0
20260504231104 68 46 0.0 4.0 0.00 0.00 0.00 59 1015.0
20260504230904 68 46 0.0 4.0 0.00 0.00 0.00 56 1014.8
20260504230504 68 47 0.0 4.0 0.00 0.00 0.00 61 1014.9
20260504230404 68 48 0.0 4.0 0.00 0.00 0.00 62 1014.9
20260504230303 68 48 0.0 4.0 0.00 0.00 0.00 59 1014.9
20260504230204 69 48 0.0 4.0 0.00 0.00 0.00 58 1014.9
20260504225804 69 43 0.0 4.0 0.00 0.00 0.00 63 1014.7
20260504225403 69 31 0.0 3.0 0.00 0.00 0.00 58 1014.7
20260504225004 69 29 0.0 3.0 0.00 0.00 0.00 58 1014.7
20260504224905 69 25 0.0 3.0 0.00 0.00 0.00 60 1014.8
20260504224703 69 24 0.0 3.0 0.00 0.00 0.00 56 1014.8
20260504224603 69 24 0.0 3.0 0.00 0.00 0.00 54 1014.7
20260504224504 69 24 0.0 3.0 0.00 0.00 0.00 56 1014.8
20260504224304 70 16 0.0 2.0 0.00 0.00 0.00 58 1014.8
20260504224103 70 22 0.0 2.0 0.00 0.00 0.00 56 1014.8
20260504223904 70 31 0.0 2.0 0.00 0.00 0.00 54 1014.8
20260504223804 70 60 0.0 2.0 0.00 0.00 0.00 55 1014.8
20260504223704 70 70 0.0 2.0 0.00 0.00 0.00 65 1014.9
20260504223604 70 70 0.0 2.0 0.00 0.00 0.00 63 1014.8
20260504223505 70 70 0.0 2.0 0.00 0.00 0.00 59 1014.7
20260504223404 70 70 0.0 2.0 0.00 0.00 0.00 58 1014.7
20260504223303 70 67 0.0 4.0 0.00 0.00 0.00 60 1014.8
20260504222904 71 58 0.0 4.0 0.00 0.00 0.00 53 1014.9
20260504222804 72 51 0.0 4.0 0.00 0.00 0.00 55 1014.9
20260504222604 72 51 0.0 4.0 0.00 0.00 0.00 50 1014.9
20260504222403 72 49 0.0 4.0 0.00 0.00 0.00 50 1014.9
20260504222305 72 11 0.0 3.0 0.00 0.00 0.00 52 1015.0
20260504222103 72 0 0.0 0.0 0.00 0.00 0.00 60 1015.1
20260504222004 72 0 0.0 0.0 0.00 0.00 0.00 58 1015.0
20260504221904 72 0 0.0 0.0 0.00 0.00 0.00 60 1015.1
20260504221604 72 0 0.0 0.0 0.00 0.00 0.00 62 1015.0
20260504221403 71 0 0.0 0.0 0.00 0.00 0.00 60 1015.1
20260504221304 71 0 0.0 0.0 0.00 0.00 0.00 63 1015.1
20260504221104 71 0 0.0 0.0 0.00 0.00 0.00 56 1015.0
20260504221004 71 0 0.0 0.0 0.00 0.00 0.00 62 1015.1
20260504220804 71 324 0.0 1.0 0.00 0.00 0.00 56 1014.9
20260504220703 71 324 0.0 1.0 0.00 0.00 0.00 55 1014.9
20260504220304 73 302 1.0 1.0 0.00 0.00 0.00 58 1015.0
20260504220204 73 294 1.0 2.0 0.00 0.00 0.00 51 1014.8
20260504220004 74 291 1.0 7.0 0.00 0.00 0.00 53 1014.6
20260504215903 74 290 1.0 7.0 0.00 0.00 0.00 53 1014.7
20260504215804 74 290 1.0 7.0 0.00 0.00 0.00 50 1014.7
20260504215704 74 289 1.0 7.0 0.00 0.00 0.00 55 1014.7
20260504215604 73 289 1.0 7.0 0.00 0.00 0.00 51 1014.7
20260504215404 73 289 1.0 7.0 0.00 0.00 0.00 46 1014.6
20260504215204 73 289 1.0 7.0 0.00 0.00 0.00 49 1014.6
20260504215104 73 288 1.0 7.0 0.00 0.00 0.00 53 1014.6
20260504214704 73 296 1.0 5.0 0.00 0.00 0.00 51 1014.7
20260504214504 73 297 1.0 5.0 0.00 0.00 0.00 49 1014.7
20260504214404 73 297 1.0 5.0 0.00 0.00 0.00 50 1014.7
20260504214203 73 294 1.0 5.0 0.00 0.00 0.00 45 1014.7
20260504213903 73 288 1.0 6.0 0.00 0.00 0.00 49 1014.8
20260504213603 73 282 1.0 7.0 0.00 0.00 0.00 48 1014.7
20260504213203 74 276 1.0 7.0 0.00 0.00 0.00 46 1014.6
20260504213104 74 274 1.0 7.0 0.00 0.00 0.00 51 1014.7
20260504213004 74 276 1.0 7.0 0.00 0.00 0.00 47 1014.6
20260504212903 74 276 1.0 7.0 0.00 0.00 0.00 48 1014.7
20260504212805 74 269 1.0 4.0 0.00 0.00 0.00 46 1014.7
20260504212404 74 282 1.0 4.0 0.00 0.00 0.00 48 1014.7
20260504212103 74 295 1.0 4.0 0.00 0.00 0.00 48 1014.8
20260504212004 74 293 1.0 4.0 0.00 0.00 0.00 47 1014.7
20260504211704 74 288 1.0 6.0 0.00 0.00 0.00 53 1014.8
20260504211603 74 290 1.0 8.0 0.00 0.00 0.00 50 1014.8
20260504211504 74 289 1.0 8.0 0.00 0.00 0.00 53 1014.8
20260504211204 73 286 1.0 8.0 0.00 0.00 0.00 50 1014.7
20260504211103 73 285 1.0 8.0 0.00 0.00 0.00 46 1014.6
20260504210904 73 277 1.0 8.0 0.00 0.00 0.00 49 1014.8
20260504210804 73 276 1.0 8.0 0.00 0.00 0.00 44 1014.7
20260504210604 74 261 1.0 4.0 0.00 0.00 0.00 48 1014.7
20260504210504 74 260 1.0 4.0 0.00 0.00 0.00 46 1014.7
20260504210403 74 259 1.0 4.0 0.00 0.00 0.00 45 1014.7
20260504210304 74 255 1.0 4.0 0.00 0.00 0.00 42 1014.7
20260504210004 74 251 1.0 4.0 0.00 0.00 0.00 45 1014.8
20260504205903 74 249 1.0 4.0 0.00 0.00 0.00 46 1014.8
20260504205703 74 243 1.0 4.0 0.00 0.00 0.00 44 1014.8
20260504205504 74 247 1.0 3.0 0.00 0.00 0.00 45 1014.8
20260504205204 74 277 1.0 3.0 0.00 0.00 0.00 46 1014.9
20260504204904 74 276 1.0 6.0 0.00 0.00 0.00 48 1014.9
20260504204703 74 285 1.0 7.0 0.00 0.00 0.00 54 1015.0
20260504204403 73 280 1.0 7.0 0.00 0.00 0.00 49 1015.0
20260504204203 73 281 1.0 7.0 0.00 0.00 0.00 47 1014.9
20260504204104 73 281 1.0 7.0 0.00 0.00 0.00 42 1014.9
20260504204004 73 284 1.0 7.0 0.00 0.00 0.00 44 1014.9
20260504203804 73 283 1.0 7.0 0.00 0.00 0.00 42 1014.9
20260504203704 73 284 1.0 7.0 0.00 0.00 0.00 45 1014.9
20260504203603 73 287 1.0 7.0 0.00 0.00 0.00 44 1014.9
20260504203304 74 289 0.0 7.0 0.00 0.00 0.00 43 1014.9
20260504203103 74 290 0.0 7.0 0.00 0.00 0.00 41 1015.0
20260504203004 74 290 0.0 7.0 0.00 0.00 0.00 45 1015.0
20260504202903 75 298 0.0 5.0 0.00 0.00 0.00 41 1015.0
20260504202804 75 304 0.0 5.0 0.00 0.00 0.00 42 1015.0
20260504202503 76 86 0.0 1.0 0.00 0.00 0.00 51 1015.2
20260504202404 75 86 0.0 1.0 0.00 0.00 0.00 55 1015.2
20260504202204 75 88 0.0 2.0 0.00 0.00 0.00 49 1015.1
20260504202004 75 90 0.0 2.0 0.00 0.00 0.00 60 1015.3
20260504201904 75 91 0.0 2.0 0.00 0.00 0.00 49 1015.2
20260504200904 74 323 1.0 4.0 0.00 0.00 0.00 45 1015.4
20260504200304 73 351 1.0 5.0 0.00 0.00 0.00 44 1015.5
20260504200203 73 347 1.0 5.0 0.00 0.00 0.00 44 1015.5
20260504200004 74 335 2.0 5.0 0.00 0.00 0.00 50 1015.4
20260504195904 74 341 2.0 5.0 0.00 0.00 0.00 45 1015.4
20260504195804 73 339 2.0 5.0 0.00 0.00 0.00 53 1015.5
20260504195704 73 324 2.0 5.0 0.00 0.00 0.00 45 1015.4
20260504195504 73 248 3.0 8.0 0.00 0.00 0.00 40 1015.3
20260504195304 74 273 3.0 8.0 0.00 0.00 0.00 42 1015.5
20260504195004 73 291 3.0 9.0 0.00 0.00 0.00 42 1015.6
20260504194804 73 291 3.0 9.0 0.00 0.00 0.00 46 1015.5
20260504194704 73 290 3.0 9.0 0.00 0.00 0.00 45 1015.5
20260504194603 73 287 2.0 9.0 0.00 0.00 0.00 42 1015.5
20260504194504 73 291 2.0 9.0 0.00 0.00 0.00 44 1015.5
20260504194204 73 278 1.0 9.0 0.00 0.00 0.00 43 1015.6
20260504194003 73 258 1.0 7.0 0.00 0.00 0.00 47 1015.6
20260504193904 73 246 1.0 7.0 0.00 0.00 0.00 40 1015.5
20260504193504 74 236 1.0 5.0 0.00 0.00 0.00 47 1015.7
20260504193403 74 249 1.0 4.0 0.00 0.00 0.00 46 1015.7
20260504193304 74 272 1.0 4.0 0.00 0.00 0.00 39 1015.6
20260504193104 74 282 1.0 4.0 0.00 0.00 0.00 41 1015.8
20260504193004 74 291 1.0 4.0 0.00 0.00 0.00 49 1015.9
20260504192803 74 308 2.0 8.0 0.00 0.00 0.00 51 1015.9
20260504192704 73 303 2.0 9.0 0.00 0.00 0.00 50 1015.9
20260504192304 73 288 1.0 9.0 0.00 0.00 0.00 43 1015.9
20260504192203 73 288 1.0 9.0 0.00 0.00 0.00 40 1015.8
20260504192004 73 266 1.0 9.0 0.00 0.00 0.00 41 1015.9
20260504191903 73 264 1.0 9.0 0.00 0.00 0.00 39 1015.9
20260504191704 74 192 1.0 6.0 0.00 0.00 0.00 43 1015.9
20260504191603 74 181 1.0 6.0 0.00 0.00 0.00 47 1016.0
20260504191504 74 179 1.0 6.0 0.00 0.00 0.00 44 1016.0
20260504191204 73 179 1.0 6.0 0.00 0.00 0.00 45 1016.0
20260504191004 73 171 1.0 6.0 0.00 0.00 0.00 40 1016.0
20260504190704 73 223 1.0 4.0 0.00 0.00 0.00 44 1016.1
20260504190604 73 229 2.0 7.0 0.00 0.00 0.00 42 1016.2
20260504190404 73 224 2.0 7.0 0.00 0.00 0.00 43 1016.2
20260504190004 73 248 2.0 7.0 0.00 0.00 0.00 38 1016.2
20260504185903 73 244 2.0 7.0 0.00 0.00 0.00 37 1016.2
20260504185204 73 206 3.0 6.0 0.00 0.00 0.00 39 1016.2
20260504185104 73 204 3.0 6.0 0.00 0.00 0.00 45 1016.3
20260504185004 73 203 3.0 6.0 0.00 0.00 0.00 40 1016.2
20260504184904 73 223 3.0 6.0 0.00 0.00 0.00 37 1016.3
20260504184703 73 266 3.0 12.0 0.00 0.00 0.00 40 1016.4
20260504184504 73 274 3.0 12.0 0.00 0.00 0.00 41 1016.3
20260504184403 72 279 3.0 12.0 0.00 0.00 0.00 34 1016.3
20260504184304 72 283 3.0 12.0 0.00 0.00 0.00 44 1016.5
20260504184004 72 292 2.0 12.0 0.00 0.00 0.00 38 1016.5
20260504183904 72 292 2.0 12.0 0.00 0.00 0.00 35 1016.4
20260504183504 72 293 2.0 9.0 0.00 0.00 0.00 40 1016.5
20260504183304 72 291 1.0 9.0 0.00 0.00 0.00 38 1016.6
20260504183104 72 289 1.0 8.0 0.00 0.00 0.00 44 1016.8
20260504182704 72 283 1.0 8.0 0.00 0.00 0.00 47 1016.7
20260504182604 72 282 1.0 8.0 0.00 0.00 0.00 45 1016.8
20260504182004 72 263 2.0 6.0 0.00 0.00 0.00 51 1016.9
20260504181804 71 276 2.0 8.0 0.00 0.00 0.00 55 1016.9
20260504181703 71 277 2.0 8.0 0.00 0.00 0.00 57 1016.9
20260504181604 71 283 2.0 8.0 0.00 0.00 0.00 44 1016.8
20260504181205 71 288 2.0 8.0 0.00 0.00 0.00 49 1016.9
20260504181104 71 289 2.0 8.0 0.00 0.00 0.00 48 1016.9
20260504180904 71 286 1.0 8.0 0.00 0.00 0.00 51 1017.0
20260504180704 71 288 1.0 8.0 0.00 0.00 0.00 49 1016.9
20260504180603 71 282 1.0 6.0 0.00 0.00 0.00 53 1017.0
20260504180504 71 276 1.0 6.0 0.00 0.00 0.00 48 1016.9
20260504180104 71 278 1.0 7.0 0.00 0.00 0.00 48 1017.0
20260504175803 71 282 1.0 7.0 0.00 0.00 0.00 53 1016.9
20260504175604 70 278 2.0 7.0 0.00 0.00 0.00 48 1016.8
20260504175504 71 269 1.0 7.0 0.00 0.00 0.00 48 1016.8
20260504175103 70 285 2.0 5.0 0.00 0.00 0.00 51 1016.9
20260504175004 70 272 2.0 4.0 0.00 0.00 0.00 49 1016.8
20260504174803 71 255 2.0 6.0 0.00 0.00 0.00 50 1016.9
20260504174604 71 259 2.0 6.0 0.00 0.00 0.00 53 1017.0
20260504174504 70 264 2.0 6.0 0.00 0.00 0.00 51 1016.9
20260504174304 70 269 2.0 9.0 0.00 0.00 0.00 59 1017.0
20260504174204 70 270 2.0 9.0 0.00 0.00 0.00 56 1017.0
20260504173905 70 287 2.0 9.0 0.00 0.00 0.00 50 1017.0
20260504173604 70 291 1.0 9.0 0.00 0.00 0.00 55 1017.1
20260504173504 70 289 1.0 9.0 0.00 0.00 0.00 56 1017.1
20260504173204 70 306 1.0 8.0 0.00 0.00 0.00 48 1017.0
20260504173103 70 310 1.0 8.0 0.00 0.00 0.00 50 1016.9
20260504172804 70 67 1.0 5.0 0.00 0.00 0.00 56 1017.1
20260504172604 70 314 2.0 7.0 0.00 0.00 0.00 49 1017.0
20260504172404 71 350 2.0 7.0 0.00 0.00 0.00 55 1017.0
20260504172304 71 348 2.0 7.0 0.00 0.00 0.00 48 1017.0
20260504172204 71 313 3.0 7.0 0.00 0.00 0.00 54 1017.1
20260504171704 69 296 3.0 8.0 0.00 0.00 0.00 52 1017.1
20260504171504 68 292 2.0 8.0 0.00 0.00 0.00 53 1017.0
20260504171405 68 288 2.0 8.0 0.00 0.00 0.00 53 1017.1
20260504171203 69 286 2.0 8.0 0.00 0.00 0.00 53 1017.2
20260504170904 69 274 1.0 8.0 0.00 0.00 0.00 53 1017.2
20260504170704 69 265 1.0 6.0 0.00 0.00 0.00 52 1017.2
20260504170604 70 265 1.0 6.0 0.00 0.00 0.00 51 1017.2
20260504170304 69 198 1.0 6.0 0.00 0.00 0.00 59 1017.2
20260504160303 66 349 2.0 4.0 0.00 0.00 0.00 63 1018.4
20260504160204 66 326 2.0 5.0 0.00 0.00 0.00 61 1018.4
20260504160104 65 312 2.0 5.0 0.00 0.00 0.00 58 1018.4
20260504151104 62 149 1.0 4.0 0.00 0.00 0.00 59 1018.8
20260504150704 63 143 0.0 4.0 0.00 0.00 0.00 57 1018.8
20260504150404 63 120 0.0 4.0 0.00 0.00 0.00 58 1018.9
20260504150304 63 120 0.0 4.0 0.00 0.00 0.00 65 1018.9
20260504150104 63 111 0.0 3.0 0.00 0.00 0.00 58 1018.9
20260504141304 59 0 0.0 0.0 0.00 0.00 0.00 64 1019.0
20260504140904 59 0 0.0 0.0 0.00 0.00 0.00 65 1019.1
20260504140803 59 0 0.0 0.0 0.00 0.00 0.00 66 1019.1
20260504140503 59 0 0.0 0.0 0.00 0.00 0.00 63 1019.1
20260504140304 59 0 0.0 0.0 0.00 0.00 0.00 67 1019.1
20260504140104 59 0 0.0 0.0 0.00 0.00 0.00 61 1019.1
20260504130604 50 0 0.0 0.0 0.00 0.00 0.00 79 1019.1
20260504130404 50 0 0.0 0.0 0.00 0.00 0.00 78 1019.0
20260504130204 50 0 0.0 0.0 0.00 0.00 0.00 78 1019.0
20260504130104 49 0 0.0 0.0 0.00 0.00 0.00 78 1019.0